Location: *
(51.4660°N, 0.3360°W)
Time: 00:42:16
(UTC+00:00)

Cosmos 1544 - Pass Details

Date: 19 September 2019
Orbit: 475 x 491 km, 82.5° (Epoch: 20 October)

Event Time Altitude Azimuth Distance (km) Brightness Sun altitude
Rises 18:49:24 0° 176° (S) 2,516 6.5 -7.3°
Reaches altitude 10° 18:51:31 10° 171° (S) 1,644 5.5 -7.6°
Maximum altitude 18:54:59 50° 95° (E) 620 3.2 -8.2°
Drops below altitude 10° 18:58:31 10° 20° (NNE) 1,665 5.7 -8.7°
Sets 19:00:40 0° 15° (NNE) 2,552 6.7 -9.0°
